Location: Unspecified
(37.6100°N, 2.7800°W)
Time: 06:21:20
(UTC+00:00)

Envisat - Pass Details

Date: 27 October 2018
Orbit: 764 x 766 km, 98.2° (Epoch: 20 November)

Event Time Altitude Azimuth Distance (km) Brightness Sun altitude
Rises 20:33:09 0° 214° (SW) 3,219 6.4 -38.9°
Reaches altitude 10° 20:36:45 10° 241° (WSW) 2,299 5.9 -39.6°
Maximum altitude 20:39:06 13° 269° (W) 2,086 5.8 -40.1°
Drops below altitude 10° 20:41:28 10° 297° (WNW) 2,306 6.1 -40.5°
Sets 20:45:07 0° 324° (NW) 3,238 6.8 -41.2°
